This demonstration page uses our WeatherBlox Daily Observations layout. Learn more.

Left ArrowRight Arrow

39.51506, -84.39828

Hourly Observations for February 1, 2017

Temp ( °F °C ) Dew Point ( °F °C ) Humidity (%) Winds ( mph kmh ) Pressure ( in mb ) Visibility ( mi km ) Precip ( " mm )
12:53 am 00:53 Cloudy 39 3.9 31 -0.6 73 73 SW 9 15 30.00 1016 10 16 0.00 0.00
1:53 am 01:53 Cloudy 39 3.9 31 -0.6 73 73 WSW 8 13 30.00 1016 10 16 0.00 0.00
2:53 am 02:53 Cloudy 38 3.3 31 -0.6 76 76 SW 6 9 29.98 1015 10 16 0.00 0.00
3:53 am 03:53 Cloudy 38 3.3 31 -0.6 76 76 W 7 11 29.97 1015 10 16 0.00 0.00
4:53 am 04:53 Cloudy 39 3.9 30 -1.1 70 70 W 8 13 29.99 1016 10 16 0.00 0.00
5:53 am 05:53 Cloudy 38 3.3 30 -1.1 73 73 WSW 7 11 30.00 1016 10 16 0.00 0.00
6:53 am 06:53 Cloudy with Light Rain 38 3.3 30 -1.1 73 73 WSW 10 17 30.02 1017 10 16 0.00 0.03
7:12 am 07:12 Cloudy with Light Rain 37 2.8 31 -0.6 79 79 WSW 8 13 30.06 1018 10 16 0.00 0.03
7:49 am 07:49 Cloudy with Light Snow 36 2 32 0 87 87 WSW 9 15 30.09 1019 7 11 0.01 0.25
7:53 am 07:53 Cloudy with Light Snow 35 1.7 32 0 89 89 WSW 9 15 30.04 1017 7 11 0.01 0.25
8:06 am 08:06 Cloudy with Light Rain 35 1.7 33 0.6 93 93 WSW 8 13 30.09 1019 10 16 0.01 0.25
8:53 am 08:53 Cloudy with Light Rain 35 1.7 33 0.6 93 93 SW 9 15 30.06 1018 10 16 0.01 0.25
9:31 am 09:31 Cloudy with Light Rain 35 1.7 34 1.1 96 96 WSW 9 15 30.12 1020 9 14 0.00 0.03
9:41 am 09:41 Cloudy with Light Rain 36 2.2 34 1.1 93 93 WSW 9 15 30.12 1020 8 13 0.00 0.03
9:53 am 09:53 Cloudy 36 2.2 34 1.1 93 93 SW 8 13 30.07 1018 9 14 0.00 0.03
10:21 am 10:21 Mostly Cloudy 36 2.2 34 1.1 93 93 SW 8 13 30.12 1020 10 16 0.00 0.00
10:31 am 10:31 Mostly Cloudy 36 2.2 34 1.1 93 93 SW 9 15 30.12 1020 10 16 0.00 0.00
10:53 am 10:53 Cloudy 37 2.8 34 1.1 89 89 SW 8 13 30.07 1018 10 16 0.00 0.00
11:28 am 11:28 Mostly Cloudy 38 3.3 33 0.6 83 83 SW 9 15 30.12 1020 10 16 0.00 0.00
11:41 am 11:41 Mostly Cloudy 38 3.3 33 0.6 83 83 SW 10 17 30.12 1020 10 16 0.00 0.00
11:53 am 11:53 Cloudy 38 3.3 33 0.6 83 83 SW 10 17 30.07 1018 10 16 0.00 0.00
12:02 pm 12:02 Cloudy 38 3.3 33 0.6 83 83 SW 9 15 30.12 1020 10 16 0.00 0.00
12:26 pm 12:26 Cloudy 39 3.9 32 0 76 76 SW 8 13 30.09 1019 10 16 0.00 0.00
12:33 pm 12:33 Cloudy 39 3.9 32 0 76 76 WSW 7 11 30.09 1019 10 16 0.00 0.00
12:44 pm 12:44 Cloudy 38 3.3 31 -0.6 76 76 WSW 8 13 30.09 1019 10 16 0.00 0.00
12:53 pm 12:53 Cloudy 39 3.9 32 0 76 76 WSW 8 13 30.04 1017 10 16 0.00 0.00
1:43 pm 13:43 Cloudy 39 3.9 31 -0.6 73 73 WSW 10 17 30.09 1019 10 16 0.00 0.00
1:53 pm 13:53 Mostly Cloudy 39 3.9 30 -1.1 70 70 WSW 7 11 30.04 1017 10 16 0.00 0.00
2:53 pm 14:53 Cloudy 40 4.4 29 -1.7 65 65 W 9 15 30.06 1018 10 16 0.00 0.00
3:53 pm 15:53 Cloudy 40 4.4 28 -2.2 63 63 WSW 8 13 30.07 1018 10 16 0.00 0.00
4:53 pm 16:53 Cloudy 40 4.4 28 -2.2 63 63 WSW 9 15 30.10 1019 10 16 0.00 0.00
5:53 pm 17:53 Mostly Cloudy 39 3.9 28 -2.2 65 65 WSW 7 11 30.11 1020 10 16 0.00 0.00
6:53 pm 18:53 Mostly Clear 37 2.8 28 -2.2 70 70 WSW 8 13 30.12 1020 10 16 0.00 0.00
7:53 pm 19:53 Clear 36 2.2 28 -2.2 73 73 W 6 9 30.14 1021 10 16 0.00 0.00
8:53 pm 20:53 Partly Cloudy 35 1.7 27 -2.8 72 72 W 6 9 30.16 1021 10 16 0.00 0.00
9:53 pm 21:53 Clear 34 1.1 27 -2.8 76 76 W 3 6 30.16 1021 10 16 0.00 0.00
10:53 pm 22:53 Mostly Cloudy 34 1.1 26 -3.3 73 73 WNW 8 13 30.17 1022 10 16 0.00 0.00
11:53 pm 23:53 Cloudy 34 1.1 26 -3.3 73 73 WNW 9 15 30.18 1022 10 16 0.00 0.00

Powered by AerisWeather